Winnerscup USA - 1

Station: Loft Fly - T Race

Distance: 1 Miles

Release: 10-Jan-2018 13:30

Weather Release:    Arrival: same

Wind at Release:     Wind at Arrival:

Temp at Release: °    Temp at Arrival: °

Lofts: 53

Birds: 285

Clocked: 283

Good Luck to Everyone!
Drops Pos Breeder Pigeon Name Color Sex Ent Arrival Speed To Win Eligible ABC
101 Dream Team - VT 0827-AU17-JCZL Special Delivery BC H 2 15:41:53.00 13.345 00:23:14 Yes
102 B E T Loft - LA 22500-AU17-AA Hollywood's Top Star BB C 1 15:41:59.00 13.335 00:23:20 Yes
103 Johnny's Automotive - CA 32920-AU17-JEDD Deliverance BB C 4 15:42:01.00 13.332 00:23:22 Yes
104 Sexton's Loft - IA 31779-AU17-AA Svetlana BC H 6 15:42:11.00 13.315 00:23:32 Yes
105 Ojibwe Loft - OK 0040-AU17-OJIB TICKELO BB H 1 15:42:12.00 13.313 00:23:33 Yes
106 Daehn/Miele - FL 3834-AU17-FOYS Time Toy GR C 5 15:42:19.00 13.301 00:23:40 Yes
107 Bluestreak - OK 7879-AU17-TRPC Sister Act BC H 3 15:42:21.00 13.298 00:23:42 Yes
108 Nesneb Racing Loft - AL 17146-AU17-MOB Done That BBWF C 3 15:42:22.00 13.296 00:23:43 Yes
109 P/R Loft - CA 0279-AU17-GSF Desciple BCW C 1 15:42:25.00 13.291 00:23:46 Yes
110 A B C Loft2 - NY 11786-AU17-ARPU Rippled BB C 4 15:42:42.00 13.263 00:24:03 Yes
111 Ken Easley-Silvercreek - NM 5156-AU17-ESLY Leanna BCW H 2 15:42:45.00 13.258 00:24:06 Hold
112 G & L Loft - OR 2393-AU17-WPC Great Return BB C 3 15:42:47.00 13.255 00:24:08 Yes
112 Nesler Boyz - CA 1764-AU17-TCH Tag Me Sold BB H 2 15:42:47.00 13.255 00:24:08 Yes
114 New Era Loft - PA 11612-AU17-ARPU Last Assignment BCWP H 7 15:42:49.00 13.251 00:24:10 Yes
115 Sofija Loft - IL 0067-AU17-BEKO Baš Bi Mi Sjelo Taman BBWF C 2 15:42:52.00 13.246 00:24:13 Yes
116 Nesler Boyz - CA 1796-AU17-TCH Front Runner BWFP C 3 15:42:54.00 13.243 00:24:15 Yes
117 Acre Farms - CA 0348-AU17-GENE Paid to Show SLAT C 2 15:42:55.00 13.241 00:24:16 Yes
118 A B C Loft2 - NY 11771-AU17-ARPU Etherium BB C 5 15:42:56.00 13.240 00:24:17 Yes
119 Racing Pigeon Mall - WA 0713-AU17-RPM Gotta Take Notice BB C 6 15:42:57.00 13.238 00:24:18 Yes
120 Jack's Loft - CA 36718-AU17-ARPU Britanny GR H 4 15:42:58.00 13.236 00:24:19 Yes
121 Walstons Warriors - NC 7410-AU17-GL Dullah Bhati BB C 3 15:43:00.00 13.233 00:24:21 Yes
122 New Era Loft - PA 11623-AU17-ARPU Affirmative BC H 8 15:43:02.00 13.230 00:24:23 Yes
123 Canto & Wiltz - MA 44764-AU17-AA Pravada BB H 1 15:43:06.00 13.223 00:24:27 Yes
124 Sheila Gabler - IL 0207-AU17-ADL Dialed In Again BB C 4 15:43:10.00 13.217 00:24:31 Yes
125 Jimmy Zheng Loft - MS 0699-AU17-ZHNG Super Crack Again BB H 3 15:43:12.00 13.213 00:24:33 Yes
126 A P C Loft - TX 17367-AU17-APC Ransome BB H 3 15:43:14.00 13.210 00:24:35 Yes
127 Sienna Loft - NC 36772-AU17-AA The General BB C 3 15:43:17.00 13.205 00:24:38 Yes
128 Ganus Family Loft - IN 0223-AU17-GFL Meteor Man DCWP C 1 15:43:27.00 13.188 00:24:48 Yes
129 Ganus Family Loft - IN 0292-AU17-GFL Planet Icon BC H 2 15:43:29.00 13.185 00:24:50 Yes
130 New Era Loft - PA 11611-AU17-ARPU Silhouette BCP H 9 15:43:32.00 13.180 00:24:53 Yes
130 Champ Camp - IN 0265-AU17-CHMP Hell Fire BWFP C 7 15:43:32.00 13.180 00:24:53 Yes
132 1-Tonyloft - VA 0676-AU17-ZHNG National Power BWFP C 2 15:43:38.00 13.170 00:24:59 Yes
133 Dream Team - VT 0573-AU17-JCZL Point Blank BC C 3 15:43:39.00 13.169 00:25:00 Yes
133 Champ Camp - IN 0275-AU17-CHMP Scirrocco BB H 8 15:43:39.00 13.169 00:25:00 Yes
135 Bluestreak - OK 7809-AU17-TRPC Indecent Proposal BL H 4 15:43:41.00 13.165 00:25:02 Yes
136 Daehn/Miele - FL 3838-AU17-FOYS Bamboozled BB H 6 15:43:46.00 13.157 00:25:07 Yes
137 Bieche-Stevenson - CA 7386-AU17-BIEC By Design BC C 2 15:43:49.00 13.152 00:25:10 Yes
138 Walstons Warriors - NC 7409-AU17-GL Boudica BBWF H 4 15:43:58.00 13.138 00:25:19 Yes
139 Red Ass Ranch - TX 0163-AU17-RAR Hulk Hogan's Back SMOK C 4 15:44:04.00 13.128 00:25:25 Yes
140 Daehn/Miele - FL 0402-AU17-NWFI Scheckles BB C 7 15:44:05.00 13.126 00:25:26 Yes
140 Spirit In The Sky - IL 0374-AU17-LCC KRYSTYNA BB H 2 15:44:05.00 13.126 00:25:26 Yes
142 Johnny's Automotive - CA 32892-AU17-JEDD Secret Window BB H 5 15:44:11.00 13.116 00:25:32 Yes
143 Bieche-Stevenson - CA 7444-AU17-BIEC Blue Million BBWF C 3 15:44:17.00 13.107 00:25:38 Missing
144 Acre Farms - CA 0346-AU17-GENE Take 5 BC C 3 15:44:18.00 13.105 00:25:39 Yes
145 Nesler Boyz - CA 1799-AU17-TCH Cherokee BC C 4 15:44:19.00 13.103 00:25:40 Yes
146 Tar Syndicate - PA 7813-AU17-TAR Compilation BB C 1 15:44:20.00 13.102 00:25:41 Yes
147 Jack's Loft - CA 36711-AU17-ARPU Alamaar RGRZ H 5 15:44:21.00 13.100 00:25:42 Yes
148 Johnny's Automotive - CA 32922-AU17-JEDD Foolish Cloud BB C 6 15:44:29.00 13.087 00:25:50 Yes
149 Sienna Loft - NC 36787-AU17-AA Suzie Q RP H 4 15:44:38.00 13.073 00:25:59 Yes
150 Longjohn Loft - OK 1186-AU17-FOYS Sleeper BL C 2 15:44:46.00 13.060 00:26:07 Yes
151 Larry Lewis - OK 8161-AU17-TRPC Vixen GP H 4 15:44:48.00 13.056 00:26:09 Yes
152 Dream Team - VT 0426-AU17-JCZL Dream Catcher SLAT C 4 15:44:50.00 13.053 00:26:11 Yes
153 A D L Loft - IL 0193-AU17-ADL One Nation BB C 2 15:44:52.00 13.050 00:26:13 Yes
154 Goshentown Lofts - TN 1769-AU17-NPA Crypto Mania SLAT H 3 15:44:55.00 13.045 00:26:16 Yes
155 Bieche-Stevenson - CA 7494-AU17-BIEC Carmela BC H 4 15:44:59.00 13.039 00:26:20 Yes
156 Spirit In The Sky - IL 0371-AU17-LCC John Paul BB C 3 15:45:00.00 13.037 00:26:21 Yes
157 Larry Lewis - OK 8158-AU17-TRPC White Matter WHGZ H 5 15:45:11.00 13.019 00:26:32 Yes
158 A P C Loft - TX 17353-AU17-APC Miss HighTower BB H 4 15:45:52.00 12.954 00:27:13 Yes
159 Hollywood Lou Loft - FL 0061-AU17-LOU Brilliance BB C 4 15:46:17.00 12.914 00:27:38 Yes
160 Sienna Loft - NC 36820-AU17-AA Baby Doll BC H 5 15:46:25.00 12.902 00:27:46 Yes
161 Jack's Loft - CA 4397-AU17-FOYS Shawnee BBPD C 6 15:46:33.00 12.889 00:27:54 Yes
162 A B C Loft2 - NY 59759-AU17-ARPU Cleopatra BC H 6 15:46:49.00 12.864 00:28:10 Yes
163 Ganus Family Loft - IN 0296-AU17-GFL Draft Me Now BC C 3 15:47:13.00 12.826 00:28:34 Yes
164 Racing Pigeon Mall - WA 0724-AU17-RPM Bet America BB C 7 15:47:24.00 12.809 00:28:45 Yes
165 A P C Loft - TX 17296-AU17-APC No Doubt GR C 5 15:47:30.00 12.800 00:28:51 Yes
166 Nesneb Racing Loft - AL 17141-AU17-MOB In The Money BB H 4 15:47:43.00 12.780 00:29:04 Yes
167 Jack's Loft - CA 4394-AU17-FOYS Constant Chaos BC C 7 15:47:51.00 12.768 00:29:12 Yes
168 Dream Team - VT 0610-AU17-JCZL Great Rendition BB C 5 15:47:52.00 12.766 00:29:13 Yes
169 Tar Syndicate - PA 7974-AU17-TAR Cloud 74 VELV C 2 15:48:03.00 12.749 00:29:24 Yes
170 Daehn/Miele - FL 3840-AU17-FOYS Steady Freddie BB C 8 15:48:05.00 12.746 00:29:26 Yes
171 Sarrett Racing Pigeons - TX 7024-AU17-PPH Similator BB C 2 15:48:06.00 12.744 00:29:27 Yes
172 Sarrett Racing Pigeons - TX 7026-AU17-PPH Amarillo Queen BC H 3 15:48:13.00 12.734 00:29:34 Yes
173 Sienna Loft - NC 36773-AU17-AA American Pied BCP C 6 15:48:14.00 12.732 00:29:35 Yes
174 Ken Easley-Silvercreek - NM 5111-AU17-ESLY Blue Vic BB H 3 15:48:18.00 12.726 00:29:39 Hold
175 A D L Loft - IL 0168-AU17-ADL Maverick BB H 3 15:48:23.00 12.718 00:29:44 Yes
176 Sienna Loft - NC 36812-AU17-AA Johnny Silk Stockings BBWF C 7 15:48:32.00 12.705 00:29:53 Yes
177 A B C Loft2 - NY 59750-AU17-ARPU BamBoo BB C 7 15:49:00.00 12.662 00:30:21 Yes
178 Huan Qiu Zhang - NC 1704-AU17-JNC New Money BC C 3 15:49:03.00 12.657 00:30:24 Hold
179 Sexton's Loft - IA 31771-AU17-AA The Mediator BC C 7 15:49:05.00 12.654 00:30:26 Yes
180 Daehn/Miele - FL 0404-AU17-NWFI Litigator Man BB C 9 15:49:45.00 12.594 00:31:06 Yes
181 Dream Team - VT 0707-AU17-JCZL Tower of Power BC H 6 15:49:47.00 12.591 00:31:08 Yes
182 Sienna Loft - NC 36819-AU17-AA Handsome BBPD C 8 15:49:49.00 12.588 00:31:10 Yes
183 Red Ass Ranch - TX 0152-AU17-RAR Fast Alice BB H 5 15:50:03.00 12.567 00:31:24 Yes
184 Acre Farms - CA 0305-AU17-GENE Blade Runner BB C 4 15:50:19.00 12.543 00:31:40 Yes
185 Valhalla Loft - CA 0492-AU17-WSJ REIMAR BB C 1 15:50:24.00 12.536 00:31:45 Yes
186 Joe Zarachowicz - MD 2272-AU17-CCC Legacy BB C 4 15:50:25.00 12.534 00:31:46 Yes
187 Hollywood Lou Loft - FL 0074-AU17-LOU Imposter BWFP C 5 15:50:31.00 12.525 00:31:52 Yes
188 Racing Pigeon Mall - WA 0717-AU17-RPM Patriot 7 BROZ H 8 15:50:49.00 12.499 00:32:10 Yes
189 Larry Lewis - OK 8156-AU17-TRPC Clippers Hero BC C 6 15:50:54.00 12.491 00:32:15 Yes
190 Jimmy Zheng Loft - MS 0630-AU17-ZHNG Lariats Fire BBWF C 4 15:51:11.00 12.466 00:32:32 Yes
191 Daehn/Miele - FL 3841-AU17-FOYS Sweet Million BC C 10 15:51:15.00 12.460 00:32:36 Yes
192 Team Fujitake - HI 13911-AU17-FOYS Blue Hilo BBWF H 1 15:51:16.00 12.459 00:32:37 Yes
193 Bolgar Loft - CA 7650-IF17-FTST Red Dawn RC C 2 15:51:20.00 12.453 00:32:41 Yes
194 Hollywood Lou Loft - FL 0059-AU17-LOU Magma BBPD H 6 15:51:24.00 12.447 00:32:45 Missing
195 P/R Loft - CA 0273-AU17-GSF National Choice BC C 2 15:51:27.00 12.443 00:32:48 Yes
196 Hollywood Lou Loft - FL 0063-AU17-LOU The Celebrity BB C 7 15:51:28.00 12.441 00:32:49 Yes
197 Red Ass Ranch - TX 0159-AU17-RAR Blue Ribbon BB H 6 15:51:30.00 12.438 00:32:51 Yes
198 Sexton's Loft - IA 31780-AU17-AA Deep Water BB C 8 15:51:31.00 12.437 00:32:52 Yes
199 Sarrett Racing Pigeons - TX 7048-AU17-PPH Target' BB H 4 15:51:38.00 12.426 00:32:59 Yes
200 Canto & Wiltz - MA 10977-AU17-AA Tanker BB C 2 15:51:55.00 12.402 00:33:16 Hold

There are 280 bird records

Note: These Race Results are unofficial and subject to change until verified by the Race Committee and declared final.